This is the latest recevied weather packets stored in our database for station/object IW1EYZ-3. If no packets are shown the sender has not sent any weather packets the latest 10 day(s).
| Time | Temp. | Humidity | Pressure | Rain* | Wind** | Luminosity | Snow |
|---|---|---|---|---|---|---|---|
| 1777425208 | 15.56° C | 52% | 1016.9 hPa | - | - | - | - |
| 1777424008 | 15.56° C | 51% | 1016.8 hPa | - | - | - | - |
| 1777422808 | 15.56° C | 52% | 1016.8 hPa | - | - | - | - |
| 1777421608 | 15.56° C | 51% | 1016.8 hPa | - | - | - | - |
| 1777420407 | 16.11° C | 54% | 1016.8 hPa | - | - | - | - |
| 1777419207 | 16.11° C | 57% | 1016.7 hPa | - | - | - | - |
| 1777418006 | 16.11° C | 57% | 1016.8 hPa | - | - | - | - |
| 1777416806 | 16.11° C | 58% | 1016.7 hPa | - | - | - | - |
| 1777415606 | 16.67° C | 57% | 1016.7 hPa | - | - | - | - |
| 1777414405 | 16.67° C | 55% | 1016.8 hPa | - | - | - | - |
| 1777413205 | 16.67° C | 54% | 1016.8 hPa | - | - | - | - |
| 1777412005 | 16.67° C | 53% | 1016.8 hPa | - | - | - | - |
| 1777410805 | 17.22° C | 52% | 1016.7 hPa | - | - | - | - |
| 1777409604 | 17.22° C | 51% | 1016.7 hPa | - | - | - | - |
| 1777408404 | 17.22° C | 57% | 1016.8 hPa | - | - | - | - |
| 1777407204 | 17.78° C | 56% | 1017 hPa | - | - | - | - |
| 1777406003 | 17.78° C | 56% | 1017 hPa | - | - | - | - |
| 1777404803 | 17.78° C | 56% | 1016.7 hPa | - | - | - | - |
| 1777403603 | 18.33° C | 56% | 1016.5 hPa | - | - | - | - |
| 1777402402 | 18.33° C | 57% | 1016.3 hPa | - | - | - | - |
| 1777401202 | 18.89° C | 57% | 1016.1 hPa | - | - | - | - |
| 1777399714 | 18.89° C | 55% | 1016.1 hPa | - | - | - | - |
| 1777398513 | 18.89° C | 55% | 1016 hPa | - | - | - | - |
| 1777397313 | 19.44° C | 53% | 1015.9 hPa | - | - | - | - |
| 1777396113 | 20° C | 51% | 1016 hPa | - | - | - | - |
* Rain since midnight (hover to see other rain measurements)
** Current wind speed in m/s (hover to see current wind gust speed)